Weather History for KRUT - October, 2010

Change the Weather History Date:

Tuesday, October 12, 2010

  Actual Average Record
Temperature  
Mean Temperature 43 °F -  
Max Temperature 53 °F - 82 °F (1949)
Min Temperature 33 °F - 22 °F (1956)
Degree Days  
Heating Degree Days 22    
Month to date heating degree days  
Since 1 July heating degree days  
Cooling Degree Days 0    
Month to date cooling degree days  
Year to date cooling degree days  
Moisture  
Dew Point 34 °F    
Average Humidity 71    
Maximum Humidity 100    
Minimum Humidity 41    
Precipitation  
Precipitation 0.00 in - 0.92 in (1975)
Month to date precipitation  
Year to date precipitation  
Sea Level Pressure  
Sea Level Pressure 29.82 in    
Wind  
Wind Speed 4 mph (North)    
Max Wind Speed 13 mph    
Max Gust Speed 18 mph    
Visibility 10 miles    
Events      
T = Trace of Precipitation, MM = Missing Value Source: NWS Daily Summary

Daily Weather History Graph

Daily Weather History Graph

Search for Another Location

Airport or City:

Trip Planner

Search our weather history database for the weather conditions in past years. The results will help you decide how hot, cold, wet, or windy it might be!

Date:

Astronomy

Oct. 12, 2010 Rise Set
Actual Time 7:02 AM EDT 6:13 PM EDT
Civil Twilight 6:33 AM EDT 6:42 PM EDT
Nautical Twilight 6:00 AM EDT 7:15 PM EDT
Astronomical Twilight 5:27 AM EDT 7:48 PM EDT
Moon 12:42 PM EDT (10/12) 9:37 PM EDT (10/12)
Length of Visible Light 12h 08m
Length of Day
11h 11m
Waxing Crescent, 28% of the Moon is Illuminated
Oct 12
Waxing Crescent
Oct 14
First Quarter
Oct 22
Full
Oct 30
Last Quarter
Nov 6
New

Hourly Weather History & Observations

Time (EDT) Temp. Windchill Dew Point Humidity Pressure Visibility Wind Dir Wind Speed Gust Speed Precip Events Conditions
12:15 AM 41.0 °F 35.2 °F 35.6 °F 81% 29.80 in 10.0 mi SE 9.2 mph - N/A   Clear
12:35 AM 41.0 °F - 37.4 °F 87% 29.80 in 10.0 mi Calm Calm - N/A   Clear
12:55 AM 41.0 °F 36.4 °F 37.4 °F 87% 29.80 in 10.0 mi ESE 6.9 mph - N/A   Clear
1:15 AM 41.0 °F - 35.6 °F 81% 29.79 in 10.0 mi Calm Calm - N/A   Clear
1:35 AM 39.2 °F 37.0 °F 35.6 °F 87% 29.79 in 10.0 mi SE 3.5 mph - N/A   Clear
1:55 AM 39.2 °F 37.0 °F 35.6 °F 87% 29.79 in 10.0 mi East 3.5 mph - N/A   Scattered Clouds
2:15 AM 37.4 °F - 35.6 °F 93% 29.80 in 10.0 mi Calm Calm - N/A   Mostly Cloudy
2:35 AM 39.2 °F - 35.6 °F 87% 29.80 in 10.0 mi Calm Calm - N/A   Overcast
2:55 AM 39.2 °F - 35.6 °F 87% 29.79 in 10.0 mi Calm Calm - N/A   Mostly Cloudy
3:15 AM 39.2 °F - 35.6 °F 87% 29.80 in 10.0 mi Calm Calm - N/A   Mostly Cloudy
3:35 AM 37.4 °F 34.9 °F 35.6 °F 93% 29.80 in 10.0 mi SE 3.5 mph - N/A   Scattered Clouds
3:55 AM 37.4 °F - 35.6 °F 93% 29.79 in 10.0 mi Calm Calm - N/A   Scattered Clouds
4:15 AM 37.4 °F 34.9 °F 33.8 °F 87% 29.79 in 10.0 mi South 3.5 mph - N/A   Scattered Clouds
4:35 AM 37.4 °F - 35.6 °F 93% 29.79 in 10.0 mi Calm Calm - N/A   Mostly Cloudy
4:55 AM 37.4 °F - 33.8 °F 87% 29.79 in 10.0 mi Calm Calm - N/A   Mostly Cloudy
5:15 AM 37.4 °F 34.9 °F 35.6 °F 93% 29.80 in 10.0 mi SE 3.5 mph - N/A   Overcast
5:35 AM 37.4 °F 34.9 °F 35.6 °F 93% 29.80 in 10.0 mi South 3.5 mph - N/A   Overcast
5:55 AM 37.4 °F - 33.8 °F 87% 29.80 in 10.0 mi Calm Calm - N/A   Scattered Clouds
6:15 AM 35.6 °F 31.7 °F 33.8 °F 93% 29.80 in 10.0 mi North 4.6 mph - N/A   Clear
6:35 AM 33.8 °F - 32.0 °F 93% 29.81 in 0.2 mi Calm Calm - N/A   Overcast
6:55 AM 35.6 °F - 33.8 °F 93% 29.81 in 1.0 mi Calm Calm - N/A   Mostly Cloudy
7:15 AM 35.6 °F 32.8 °F 33.8 °F 93% 29.81 in 5.0 mi SE 3.5 mph - N/A   Clear
7:35 AM 35.6 °F - 33.8 °F 93% 29.81 in 10.0 mi Calm Calm - N/A   Clear
7:55 AM 33.8 °F - 33.8 °F 100% 29.82 in 10.0 mi Calm Calm - N/A   Clear
8:15 AM 37.4 °F - 33.8 °F 87% 29.82 in 10.0 mi Calm Calm - N/A   Clear
8:35 AM 37.4 °F 34.9 °F 35.6 °F 93% 29.82 in 10.0 mi SSE 3.5 mph - N/A   Clear
8:55 AM 37.4 °F - 35.6 °F 93% 29.83 in 10.0 mi Calm Calm - N/A   Mostly Cloudy
9:15 AM 41.0 °F - 37.4 °F 87% 29.83 in 10.0 mi Calm Calm - N/A   Overcast
9:35 AM 42.8 °F 40.1 °F 37.4 °F 81% 29.83 in 10.0 mi North 4.6 mph - N/A   Overcast
9:55 AM 44.6 °F 41.4 °F 37.4 °F 76% 29.83 in 10.0 mi NNW 5.8 mph - N/A   Overcast
10:15 AM 44.6 °F 41.4 °F 35.6 °F 71% 29.83 in 10.0 mi North 5.8 mph - N/A   Overcast
10:35 AM 46.4 °F 43.5 °F 37.4 °F 71% 29.83 in 10.0 mi NNE 5.8 mph - N/A   Overcast
10:55 AM 48.2 °F - 37.4 °F 66% 29.83 in 10.0 mi WNW 6.9 mph - N/A   Overcast
11:35 AM 48.2 °F - 35.6 °F 62% 29.82 in 10.0 mi North 5.8 mph - N/A   Partly Cloudy
11:55 AM 51.8 °F - 32.0 °F 47% 29.82 in 10.0 mi NW 9.2 mph 16.1 mph N/A   Clear
12:15 PM 51.8 °F - 30.2 °F 44% 29.82 in 10.0 mi North 9.2 mph - N/A   Clear
12:35 PM 53.6 °F - 30.2 °F 41% 29.82 in 10.0 mi NW 5.8 mph - N/A   Clear
12:55 PM 53.6 °F - 32.0 °F 44% 29.81 in 10.0 mi North 9.2 mph - N/A   Partly Cloudy
1:15 PM 53.6 °F - 33.8 °F 47% 29.81 in 10.0 mi North 10.4 mph 16.1 mph N/A   Mostly Cloudy
1:35 PM 51.8 °F - 32.0 °F 47% 29.81 in 10.0 mi North 12.7 mph 16.1 mph N/A   Overcast
1:55 PM 51.8 °F - 32.0 °F 47% 29.81 in 10.0 mi North 10.4 mph - N/A   Overcast
2:15 PM 53.6 °F - 33.8 °F 47% 29.81 in 10.0 mi NNW 6.9 mph 18.4 mph N/A   Mostly Cloudy
2:35 PM 53.6 °F - 32.0 °F 44% 29.81 in 10.0 mi NW 9.2 mph - N/A   Mostly Cloudy
2:55 PM 53.6 °F - 33.8 °F 47% 29.81 in 10.0 mi NNW 8.1 mph - N/A   Scattered Clouds
3:15 PM 53.6 °F - 33.8 °F 47% 29.82 in 10.0 mi North 9.2 mph 16.1 mph N/A   Mostly Cloudy
3:35 PM 53.6 °F - 33.8 °F 47% 29.83 in 10.0 mi WNW 8.1 mph - N/A   Scattered Clouds
3:55 PM 53.6 °F - 32.0 °F 44% 29.84 in 10.0 mi North 10.4 mph - N/A   Mostly Cloudy
4:15 PM 53.6 °F - 33.8 °F 47% 29.84 in 10.0 mi North 9.2 mph - N/A   Partly Cloudy
4:35 PM 53.6 °F - 32.0 °F 44% 29.84 in 10.0 mi North 6.9 mph - N/A   Clear
5:15 PM 51.8 °F - 32.0 °F 47% 29.85 in 10.0 mi North 8.1 mph - N/A   Clear
5:35 PM 51.8 °F - 32.0 °F 47% 29.86 in 10.0 mi NNW 9.2 mph - N/A   Clear
5:55 PM 50.0 °F - 32.0 °F 50% 29.86 in 10.0 mi NNW 6.9 mph - N/A   Clear
6:15 PM 48.2 °F - 32.0 °F 54% 29.87 in 10.0 mi NW 6.9 mph - N/A   Clear
6:35 PM 48.2 °F - 32.0 °F 54% 29.88 in 10.0 mi NNE 3.5 mph - N/A   Clear
6:55 PM 46.4 °F 43.5 °F 32.0 °F 57% 29.89 in 10.0 mi North 5.8 mph - N/A   Clear
7:15 PM 46.4 °F 43.5 °F 32.0 °F 57% 29.90 in 10.0 mi North 5.8 mph - N/A   Clear
7:35 PM 46.4 °F 43.5 °F 32.0 °F 57% 29.91 in 10.0 mi NNW 5.8 mph - N/A   Clear
7:55 PM 44.6 °F 42.2 °F 32.0 °F 61% 29.91 in 10.0 mi NNW 4.6 mph - N/A   Clear
8:15 PM 42.8 °F 41.1 °F 33.8 °F 70% 29.91 in 10.0 mi NE 3.5 mph - N/A   Clear
8:35 PM 39.2 °F - 33.8 °F 81% 29.92 in 10.0 mi Calm Calm - N/A   Clear
8:55 PM 39.2 °F - 33.8 °F 81% 29.93 in 10.0 mi Calm Calm - N/A   Clear
9:15 PM 39.2 °F 37.0 °F 33.8 °F 81% 29.93 in 10.0 mi SSE 3.5 mph - N/A   Clear
9:35 PM 39.2 °F 37.0 °F 33.8 °F 81% 29.93 in 10.0 mi SE 3.5 mph - N/A   Clear
9:55 PM 37.4 °F - 32.0 °F 81% 29.94 in 10.0 mi Calm Calm - N/A   Clear
10:15 PM 37.4 °F - 33.8 °F 87% 29.94 in 10.0 mi Calm Calm - N/A   Clear
10:35 PM 35.6 °F 32.8 °F 30.2 °F 81% 29.94 in 10.0 mi SE 3.5 mph - N/A   Clear
10:55 PM 35.6 °F 32.8 °F 32.0 °F 87% 29.95 in 10.0 mi SE 3.5 mph - N/A   Clear
11:15 PM 35.6 °F 31.7 °F 30.2 °F 81% 29.95 in 10.0 mi SE 4.6 mph - N/A   Clear
11:35 PM 35.6 °F 31.7 °F 32.0 °F 87% 29.95 in 10.0 mi ESE 4.6 mph - N/A   Clear
11:55 PM 35.6 °F 29.9 °F 30.2 °F 81% 29.96 in 10.0 mi SE 6.9 mph - N/A   Clear